Date,TemperatureHighF,TemperatureAvgF,TemperatureLowF,DewpointHighF,DewpointAvgF,DewpointLowF,HumidityHigh,HumidityAvg,HumidityLow,PressureMaxIn,PressureMinIn,WindSpeedMaxMPH,WindSpeedAvgMPH,GustSpeedMaxMPH,PrecipitationSumIn
2013-5-1,47,36,25,20,15,7,71,46,21,0.00,40.00,13,6,19,0.00
2013-5-2,62,47,33,25,16,11,60,33,14,0.00,40.00,16,10,24,0.00
2013-5-3,64,52,42,41,23,13,89,35,20,0.00,40.00,18,11,24,0.00
2013-5-4,55,48,42,44,39,33,95,74,46,0.00,40.00,15,8,22,0.01
2013-5-5,67,54,42,40,32,26,84,48,24,0.00,40.00,12,8,22,0.01
2013-5-6,73,58,44,34,28,23,56,33,20,0.00,40.00,13,7,16,0.00
2013-5-7,76,64,48,37,30,25,52,31,17,0.00,40.00,19,10,24,0.00
2013-5-8,69,58,45,39,35,22,64,44,26,0.00,40.00,22,10,25,0.00
2013-5-9,72,59,44,42,37,33,73,46,26,0.00,40.00,12,7,27,0.00
2013-5-10,68,59,50,40,30,-100,53,37,24,0.00,40.00,24,13,34,0.00
2013-5-11,75,59,46,34,25,-100,36,28,21,0.00,40.00,13,8,19,0.00
2013-5-12,87,73,62,39,34,28,34,24,13,0.00,40.00,17,11,30,0.00
2013-5-13,90,78,69,44,34,25,34,22,11,0.00,40.00,23,11,41,0.00
2013-5-14,77,66,54,45,34,21,64,34,17,0.00,40.00,19,11,36,0.00
2013-5-15,73,62,48,38,25,17,45,25,21,0.00,40.00,17,9,24,0.00
2013-5-16,67,52,50,52,30,-100,99,66,37,0.00,40.00,15,10,29,0.29
2013-5-17,57,52,49,53,48,-100,100,95,81,0.00,40.00,12,6,16,0.56
2013-5-18,55,52,50,54,51,49,100,98,91,0.00,40.00,12,7,15,0.65
2013-5-19,51,49,48,51,49,48,100,100,100,0.00,40.00,18,12,26,1.89
2013-5-20,62,53,47,50,43,27,100,73,30,0.00,40.00,26,14,34,0.38
2013-5-21,63,53,44,43,37,29,82,58,29,0.00,40.00,21,11,32,0.00
2013-5-22,63,51,43,45,43,40,97,75,48,0.00,40.00,29,19,40,0.00
2013-5-23,69,57,49,52,45,41,100,67,44,0.00,40.00,29,18,39,0.11
2013-5-24,69,58,47,52,37,28,100,54,22,0.00,40.00,20,11,34,0.14
2013-5-25,76,61,48,41,36,30,63,41,22,0.00,40.00,23,12,36,0.00
2013-5-26,74,60,49,54,46,36,85,62,40,0.00,40.00,17,11,24,0.13
2013-5-27,62,55,48,51,46,40,98,75,47,0.00,40.00,15,7,46,0.17
2013-5-28,68,58,51,48,44,41,79,60,41,0.00,40.00,16,7,22,0.02
2013-5-29,56,50,49,51,50,47,100,99,71,0.00,40.00,14,9,24,2.13
2013-5-30,50,48,47,49,47,43,100,95,84,0.00,40.00,19,13,35,1.08
2013-5-31,52,48,44,45,41,38,97,79,63,0.00,40.00,28,17,43,0.24